Погода Буй

Погода Буй : погода сейчас, прогноз погоды и архив. Всё, что Вы хотите узнать о погоде Буй!

Хотите узнать прогноз погоды Буй? Тогда Вам сюда: Погода Буй

Поиск расширенной информации на нашем сайте:

Другие новости

Новости СМИ2

Главная страница сайта

Новости сайта

03.07.2017

Напоминаем, что на нашем специализированном сайте Метеоцентр.Азия вы можете получить высокодетализированные автоматические прогнозы погоды по пунктам России, СНГ и мира в авиационном формате (включающие направление и скорость ветра, видимость, явления погоды, количество и форму облачности, нижнюю и верхнюю границу облачности).


Погода Буй - сегодня

Время (UTC), дата Ветер
(°,м/с) 
Видим.   Явления Облачность Т
(°С)
Тd
(°С)
f(%) Тe
(°С)
Pmin
(гПа)
dP
(гПа)
Po
(мм)
O2
(г/м3)
Тmin Tmax R s Состояние
почвы
15 17.10.17 240 (ЮЗ) 20000 м    8/8 1500 м средняя 
[Ac trans]
+7.2 +3.2 76 +7  1005.7  745  291    +9.8  0.8     
18 17.10.17 260 (З) 20000 м    9/0 верхняя 
[Ci fib]
+4.3 +2.8 90 +5  1006.1  0.3  745  295           
21 17.10.17 тихо ()   20000 м    9/9 2000 м средняя 
[Ac trans]
+4.3 +3.6 95 +4  1006.1  745  295           
00 18.10.17 тихо ()   20000 м    10/10 2000 м 
[Ac und]
+5 +4.3 95 +5  1005.4  -0.7  745  294           
03 18.10.17 250 (З) 20000 м    10/10 2000 м 
[Ac und]
+5.2 +4.3 94 +4  1001.7  -3.6  742  293  +4.1        влажная 
06 18.10.17 230 (ЮЗ) 15000 м  слаб. ливневой дождь  10/10 600 м кучево-дожд. 
[Cb cap]
+5.2 +4.7 97 +4  998.7  -3  717  283           
09 18.10.17 210 (ЮЗ) 12000 м  слаб. ливневой дождь  10/10 300 м кучево-дожд. 
[Cb cap]
+8.4 +8 97 +8  996  -2.5  738  287           
12 18.10.17 230 (ЮЗ) 30000 м  {ливн. осадки}  10/10 300 м кучево-дожд. 
[Cb cap]
+10.6 +9.8 95 +13  994.9  -1  737  284           
15 18.10.17 240 (ЮЗ) 10 км  слаб. ливневой дождь  10/10 300 м кучево-дожд. 
[Cb cap]
+10 +9.4 96 +11  994.4  -0.5  737  285    +10.6     
18 18.10.17 250 (З) 10 км  слаб. ливневой дождь  10/10 300 м кучево-дожд. 
[Cb cap]
+9.7 +9 95 +10  993.5  -0.9  736  285           
21 18.10.17 290 (З) 5-12{12}  10 км  слаб. ливневой дождь  10/10 300 м кучево-дожд. 
[Cb cap]
+7.2 +5.5 89 +5  995.5  1.8  737  289           
00 19.10.17 290 (З) 4-10{13}  20000 м  {ливн. осадки}  10/10 300 м кучево-дожд. 
[Cb cap]
+5 +3.3 89 +3  999.4  3.8  740  292           
03 19.10.17 300 (СЗ) 4-10{10}  20000 м    10/10 300 м кучево-дожд. 
[Cb cap]
+4.8 +2.6 86 +3  1002.1  2.6  742  293  +4.5      влажная 
06 19.10.17 300 (СЗ) 50000 м    9/9 600 м кучево-дожд. 
[Cb cap]
+4.3 +2 85 +4  1004.1  744  295  +4         
09 19.10.17 310 (СЗ) 4{11}  50000 м    9/9 600 м кучево-дожд. 
[Cb cap]
+5.2 +1.4 76 +4  1005.9  1.8  745  294           
12 19.10.17 280 (З) 3{10}  50000 м    9/9 600 м кучево-дожд. 
[Cb cap]
+6.9 +2.3 72 +6  1007.6  1.8  746  293           
15 19.10.17 290 (З) 20000 м    10/10 600 м кучево-дожд. 
[Cb cap]
+5.3 +2.6 83 +4  1009.4  1.7  748  295    +7       
18 19.10.17 280 (З) 20000 м    10/10 600 м кучево-дожд. 
[Cb cap]
+4.3 +1.8 84 +4  1011.2  1.6  749  297           
21 19.10.17 260 (З) 20000 м    10/10 600 м кучево-дожд. 
[Cb cap]
+3.2 +2.7 97 +3  1012.8  1.6  750  298           
00 20.10.17 260 (З) 20000 м    10/10 600 м кучево-дожд. 
[Cb cap]
+2.6 +2.1 96 +1  1013.9  1.1  751  299           
03 20.10.17 260 (З) 20000 м  в посл. час ливневой дождь  10/10 600 м кучево-дожд. 
[Cb cap]
+1.9 +1.4 96 +1  1015.5  1.5  752  301  +1      влажная 
06 20.10.17 290 (З) 10 км  слаб. ливневой снег  10/10 300 м кучево-дожд. 
[Cb cap]
+1 +0.5 96 +2  1017.1  1.6  753  302  +0.9         
09 20.10.17 290 (З) 50000 м  {ливн. осадки}  10/10 300 м кучево-дожд. 
[Cb cap]
+2.9 +1.9 93 +4  1018  754  300           
12 20.10.17 290 (З) 30000 м  в посл. час ливневой снег  10/10 300 м кучево-дожд. 
[Cb cap]
+2.8 +1.5 91 +4  1018.6  0.6  754  301           
15 20.10.17 тихо ()   20000 м    10/10 300 м кучево-дожд. 
[Cb cap]
+1.3 +0.5 94 +1  1019.1  0.4  755  303    +3.3     
Время (UTC), дата Ветер
(°,м/с) 
Видим.   Явления Облачность Т
(°С)
Тd
(°С)
f(%) Тe
(°С)
Pmin
(гПа)
dP
(гПа)
Po
(мм)
O2
(г/м3)
Тmin Tmax R s Состояние
почвы

Для получения пояснительной информации подведите курсор к названию столбца.

ПОГОДА Буй - архив

Всё, что Вы хотите узнать о погоде Буй - удобно и подробно!

Выберите нужную дату (начиная с 1 января 2015* года) и нажмите кнопку "Найти".
Будут отображены архивные сводки погоды по пункту Буй, начиная с указанной даты.


Отображать данные в формате CSV (для использования в таблицах Excel)


Внимание! Наш архив погоды предназначен исключительно для личного некоммерческого использования в познавательных целях. Если Вам необходимы официальные справки о состоянии погоды (для производственных, юридических, коммерческих и т.п. целей), обращайтесь в органы Росгидромета.

*Примечание: данная дата относится к архиву по метеостанциям СССР (Россия, СНГ, Балтия).
Архив по метеостанциям Зарубежной Европы и Азии (кроме Китая) хранится 10 дней, по другим регионам земного шара (Китай, Африка, Америка, Австралия, Океания) - 1 день.

Буй - район местоположения метеостанции


Название, широта, долгота, высота метеостанции:
Буй 58.5°ш. 41.5°д. 103 м над ур. моря [Российская Федерация]

Дополнительная информация

В oтличие oт бoльшинства пoгoдных сайтoв мы публикуем пoдрoбную метеoинфoрмацию в детальнoм прoфессиoнальнoм фoрмате.

Характеристики температуры и влажнoсти вoздуха измеряются на высoте 2 м в тени вдали oт зданий и деревьев.
Скoрoсть ветра измеряется на высoте 10 м (на урoвне рoста челoвека скoрoсть ветра ниже в 1.5-2 раза). Если метеoстанция нахoдится в гoрoде или в лесу, тo скoрoсть ветра занижена на 2-4 м/с пo сравнению с oткрытым местoм. Скoрoсть ветра над акватoриями крупных рек и oзёр, а также на вершинах хoлмoв на 2-5 м/с выше, чем в oбычных услoвиях.
Атмoсфернoе давление в разных тoчках местнoсти мoжет значительнo oтличаться oт давления на метеoстанции, в зависимoсти oт услoвий рельефа (при пoдъёме на 10 м давление пoнижается примернo на 1 мм рт.ст.).